• In Belarus
  • List of Countries
  • For 7 days
  • Water Temperature
  • Satellite Maps
  • Weather Map
  • Weather Widgets
  • user-avatar
    Login

    Hourly Weather Chudynivtsi

    Today, 23 February, Friday

    Time Temperature Precipitation Wind Pressure Humidity
    00:00 -8°C° 0 mm 2 mps 741 mmHg 93%
    01:00 -8°C° 0 mm 2 mps 741 mmHg 94%
    02:00 -9°C° 0 mm 2 mps 741 mmHg 94%
    03:00 -9°C° 0 mm 2 mps 741 mmHg 94%
    04:00 -9°C° 0 mm 2 mps 741 mmHg 95%
    05:00 -9°C° 0 mm 2 mps 741 mmHg 95%
    06:00 -9°C° 0 mm 2 mps 741 mmHg 95%
    07:00 -9°C° 0 mm 2 mps 741 mmHg 95%
    08:00 -9°C° 0 mm 2 mps 741 mmHg 95%
    09:00 -8°C° 0 mm 2 mps 741 mmHg 93%
    10:00 -7°C° 0 mm 2 mps 741 mmHg 91%
    11:00 -6°C° 0 mm 2 mps 741 mmHg 89%
    12:00 -6°C° 0 mm 2 mps 741 mmHg 88%
    13:00 -5°C° 0 mm 2 mps 740 mmHg 86%
    14:00 -5°C° 0 mm 2 mps 740 mmHg 85%
    15:00 -5°C° 0.1 mm 2 mps 740 mmHg 87%
    16:00 -6°C° 0.1 mm 2 mps 740 mmHg 89%
    17:00 -6°C° 0.1 mm 2 mps 739 mmHg 92%
    18:00 -6°C° 0.3 mm 2 mps 739 mmHg 93%
    19:00 -6°C° 0.3 mm 2 mps 739 mmHg 94%
    20:00 -7°C° 0.3 mm 2 mps 739 mmHg 96%
    21:00 -7°C° 0.3 mm 2 mps 739 mmHg 96%
    22:00 -7°C° 0.3 mm 2 mps 738 mmHg 96%
    23:00 -6°C° 0.3 mm 1 mps 738 mmHg 97%

    Tomorrow, 24 February, Saturday

    Time Temperature Precipitation Wind Pressure Humidity
    00:00 -7°C° 0.2 mm 1 mps 738 mmHg 97%
    01:00 -7°C° 0.2 mm 1 mps 738 mmHg 97%
    02:00 -7°C° 0.2 mm 1 mps 737 mmHg 97%
    03:00 -8°C° 0.1 mm 2 mps 737 mmHg 97%
    04:00 -8°C° 0.1 mm 2 mps 737 mmHg 97%
    05:00 -9°C° 0.1 mm 2 mps 737 mmHg 97%
    06:00 -10°C° 0 mm 3 mps 737 mmHg 96%
    07:00 -10°C° 0 mm 3 mps 737 mmHg 96%
    08:00 -12°C° 0 mm 3 mps 737 mmHg 96%
    09:00 -10°C° 0 mm 3 mps 737 mmHg 93%
    10:00 -10°C° 0 mm 4 mps 737 mmHg 91%
    11:00 -10°C° 0 mm 4 mps 737 mmHg 89%
    12:00 -9°C° 0.1 mm 4 mps 737 mmHg 87%
    13:00 -9°C° 0.1 mm 4 mps 737 mmHg 85%
    14:00 -9°C° 0.1 mm 4 mps 737 mmHg 84%
    15:00 -9°C° 0.1 mm 4 mps 737 mmHg 85%
    16:00 -10°C° 0.1 mm 4 mps 737 mmHg 86%
    17:00 -10°C° 0.1 mm 4 mps 737 mmHg 88%
    18:00 -10°C° 0 mm 3 mps 737 mmHg 90%
    19:00 -13°C° 0 mm 3 mps 738 mmHg 92%
    20:00 -14°C° 0 mm 3 mps 738 mmHg 94%
    21:00 -14°C° 0 mm 3 mps 738 mmHg 94%
    22:00 -14°C° 0 mm 3 mps 738 mmHg 94%
    23:00 -15°C° 0 mm 4 mps 739 mmHg 94%

    Day after tomorrow, 25 February, Sunday

    Time Temperature Precipitation Wind Pressure Humidity
    00:00 -15°C° 0 mm 4 mps 739 mmHg 93%
    01:00 -15°C° 0 mm 4 mps 739 mmHg 93%
    02:00 -16°C° 0 mm 4 mps 739 mmHg 92%
    03:00 -16°C° 0 mm 4 mps 739 mmHg 92%
    04:00 -16°C° 0 mm 4 mps 740 mmHg 92%
    05:00 -17°C° 0 mm 4 mps 740 mmHg 92%
    06:00 -17°C° 0 mm 4 mps 740 mmHg 93%
    07:00 -18°C° 0 mm 4 mps 741 mmHg 93%
    08:00 -19°C° 0 mm 4 mps 741 mmHg 93%
    09:00 -18°C° 0 mm 4 mps 741 mmHg 92%
    10:00 -18°C° 0 mm 4 mps 741 mmHg 91%
    11:00 -17°C° 0 mm 4 mps 742 mmHg 90%
    12:00 -17°C° 0 mm 4 mps 742 mmHg 89%
    13:00 -16°C° 0 mm 4 mps 742 mmHg 88%
    14:00 -16°C° 0 mm 4 mps 742 mmHg 87%
    15:00 -16°C° 0 mm 4 mps 742 mmHg 87%
    16:00 -16°C° 0 mm 4 mps 742 mmHg 88%
    17:00 -16°C° 0 mm 3 mps 742 mmHg 89%
    18:00 -17°C° 0 mm 3 mps 742 mmHg 91%
    19:00 -18°C° 0 mm 3 mps 742 mmHg 92%
    20:00 -18°C° 0 mm 2 mps 743 mmHg 94%
    21:00 -18°C° 0 mm 2 mps 743 mmHg 95%
    22:00 -19°C° 0 mm 2 mps 743 mmHg 96%
    23:00 -19°C° 0 mm 2 mps 743 mmHg 96%

    26 February, Monday

    Time Temperature Precipitation Wind Pressure Humidity
    00:00 -19°C° 0 mm 2 mps 743 mmHg 97%
    01:00 -20°C° 0 mm 2 mps 743 mmHg 97%
    02:00 -20°C° 0 mm 2 mps 743 mmHg 98%
    03:00 -20°C° 0 mm 2 mps 743 mmHg 98%
    04:00 -21°C° 0 mm 2 mps 743 mmHg 98%
    05:00 -21°C° 0 mm 2 mps 743 mmHg 98%
    06:00 -21°C° 0 mm 2 mps 743 mmHg 98%
    07:00 -21°C° 0 mm 2 mps 743 mmHg 98%
    08:00 -21°C° 0 mm 2 mps 744 mmHg 98%
    09:00 -19°C° 0 mm 2 mps 744 mmHg 95%
    10:00 -18°C° 0 mm 2 mps 744 mmHg 92%
    11:00 -17°C° 0 mm 2 mps 744 mmHg 89%
    12:00 -16°C° 0 mm 2 mps 744 mmHg 88%
    13:00 -15°C° 0 mm 2 mps 743 mmHg 86%
    14:00 -15°C° 0 mm 2 mps 743 mmHg 84%
    15:00 -15°C° 0 mm 2 mps 743 mmHg 86%
    16:00 -15°C° 0 mm 2 mps 743 mmHg 88%
    17:00 -16°C° 0 mm 2 mps 743 mmHg 90%
    18:00 -17°C° 0 mm 2 mps 743 mmHg 92%
    19:00 -18°C° 0 mm 2 mps 743 mmHg 93%
    20:00 -19°C° 0 mm 2 mps 743 mmHg 95%
    21:00 -20°C° 0 mm 2 mps 743 mmHg 96%
    22:00 -20°C° 0 mm 2 mps 742 mmHg 96%
    23:00 -20°C° 0 mm 2 mps 742 mmHg 96%

    27 February, Tuesday

    Time Temperature Precipitation Wind Pressure Humidity
    00:00 -20°C° 0 mm 2 mps 742 mmHg 97%
    01:00 -20°C° 0 mm 2 mps 742 mmHg 97%
    02:00 -20°C° 0 mm 2 mps 742 mmHg 98%
    03:00 -22°C° 0 mm 3 mps 741 mmHg 97%
    04:00 -22°C° 0 mm 3 mps 741 mmHg 97%
    05:00 -22°C° 0 mm 3 mps 740 mmHg 97%
    06:00 -22°C° 0 mm 3 mps 740 mmHg 97%
    07:00 -23°C° 0 mm 4 mps 740 mmHg 96%
    08:00 -23°C° 0 mm 4 mps 740 mmHg 95%
    09:00 -22°C° 0 mm 4 mps 740 mmHg 94%
    10:00 -20°C° 0 mm 4 mps 740 mmHg 92%
    11:00 -20°C° 0 mm 5 mps 740 mmHg 90%
    12:00 -19°C° 0 mm 5 mps 739 mmHg 89%
    13:00 -18°C° 0 mm 5 mps 739 mmHg 88%
    14:00 -18°C° 0 mm 5 mps 738 mmHg 87%
    15:00 -18°C° 0.1 mm 5 mps 738 mmHg 88%
    16:00 -18°C° 0.1 mm 5 mps 738 mmHg 89%
    17:00 -18°C° 0.1 mm 6 mps 737 mmHg 90%
    18:00 -18°C° 0.3 mm 6 mps 737 mmHg 91%
    19:00 -18°C° 0.3 mm 6 mps 737 mmHg 92%
    20:00 -18°C° 0.3 mm 6 mps 737 mmHg 93%
    21:00 -18°C° 0.3 mm 6 mps 737 mmHg 93%
    22:00 -18°C° 0.3 mm 6 mps 737 mmHg 93%
    23:00 -18°C° 0.3 mm 5 mps 736 mmHg 93%

    28 February, Wednesday

    Time Temperature Precipitation Wind Pressure Humidity
    00:00 -18°C° 0.3 mm 5 mps 736 mmHg 93%
    01:00 -17°C° 0.3 mm 4 mps 736 mmHg 94%
    02:00 -17°C° 0.3 mm 4 mps 736 mmHg 94%
    03:00 -18°C° 0.1 mm 4 mps 735 mmHg 94%
    04:00 -17°C° 0.1 mm 3 mps 735 mmHg 95%
    05:00 -17°C° 0.1 mm 3 mps 735 mmHg 95%
    06:00 -17°C° 0 mm 3 mps 735 mmHg 95%
    07:00 -18°C° 0 mm 3 mps 735 mmHg 95%
    08:00 -17°C° 0 mm 2 mps 735 mmHg 96%
    09:00 -16°C° 0 mm 2 mps 735 mmHg 93%
    10:00 -15°C° 0 mm 2 mps 735 mmHg 90%
    11:00 -15°C° 0 mm 2 mps 735 mmHg 87%
    12:00 -14°C° 0 mm 2 mps 735 mmHg 85%
    13:00 -14°C° 0 mm 2 mps 735 mmHg 83%
    14:00 -13°C° 0 mm 2 mps 735 mmHg 81%
    15:00 -14°C° 0 mm 2 mps 736 mmHg 83%
    16:00 -12°C° 0 mm 1 mps 736 mmHg 85%
    17:00 -12°C° 0 mm 1 mps 736 mmHg 87%
    18:00 -14°C° 0 mm 1 mps 736 mmHg 88%
    19:00 -15°C° 0 mm 1 mps 736 mmHg 89%
    20:00 -16°C° 0 mm 1 mps 736 mmHg 90%
    21:00 -16°C° 0 mm 1 mps 737 mmHg 91%
    22:00 -17°C° 0 mm 1 mps 737 mmHg 91%
    23:00 -17°C° 0 mm 1 mps 737 mmHg 91%
    Show more